Location: Huntington
(40.8831°N, 85.4975°W)
Time: 15:25:40
(UTC-04:00)

X-37B - Visible Passes

Search period start: 13 April 2021 00:00
Search period end: 23 April 2021 00:00
Orbit: 380 x 394 km, 45.0° (Epoch: 07 April)

Date Brightness Start Highest point End Pass type
(mag) Time Alt. Az. Time Alt. Az. Time Alt. Az.
13 Apr 3.1 05:27:48 12° SSE 05:28:40 13° SE 05:30:19 10° ESE visible
14 Apr 1.4 06:04:24 16° SW 06:06:35 43° SSE 06:09:38 10° ENE visible
15 Apr 2.3 05:08:38 24° SE 05:08:38 24° SE 05:11:01 10° E visible
16 Apr 0.5 05:45:05 31° WSW 05:46:26 78° SSE 05:49:36 10° ENE visible
17 Apr 2.2 04:49:12 30° E 04:49:12 30° E 04:51:10 10° ENE visible
17 Apr 1.3 06:21:40 10° W 06:24:46 47° NNW 06:27:51 10° ENE visible
18 Apr 0.7 05:25:33 45° W 05:26:19 66° NNW 05:29:29 10° ENE visible
19 Apr 2.8 04:29:37 25° ENE 04:29:37 25° ENE 04:31:07 10° ENE visible
19 Apr 1.7 06:01:53 11° WNW 06:04:45 39° N 06:07:46 10° ENE visible
20 Apr 1.2 05:05:56 44° NW 05:06:16 47° NNW 05:09:22 10° ENE visible
21 Apr 3.4 04:09:58 19° ENE 04:09:58 19° ENE 04:11:01 10° ENE visible
21 Apr 1.9 05:42:15 13° WNW 05:44:46 36° N 05:47:45 10° ENE visible
22 Apr 1.8 04:46:19 39° N 04:46:19 39° N 04:49:18 10° ENE visible
22 Apr 1.5 06:20:10 10° WNW 06:23:16 47° NNE 06:26:21 10° E visible
